Home > Weather > Campo Grande > Past weeks

Flag for Brazil Past Weather in Campo Grande, Mato Grosso Do Sul, Brazil — Yesterday and Last 2 Weeks

Now
54 °F

Sunny.


Feels Like: 49 °F
Forecast: 52 / 72 °F
Wind: 16 mph from Southeast

Location: Campo Grande Aeroporto

Current Time: May 24, 2016 at 7:58:50 AM

Latest Report: May 24, 2016 at 7:00 AM


Visibility: 10 mi

Pressure: 30.24 "Hg (28.43 "Hg at 516m altitude)

Humidity: 72%

Dew Point: 45 °F

Location of Campo GrandeLocation

Past Weather in Campo Grande — Graph

°F

Campo Grande Temperature Yesterday

Maximum temperature yesterday: 66 °F (at 1:00 PM)
Minimum temperature yesterday: 52 °F (at 6:00 AM)
Average temperature yesterday: 58 °F

High & Low Weather Summary for the Past Weeks

 TemperatureHumidityPressure
High86 °F (May 15, 12:00 PM)100% (May 9, 10:00 PM)30.30 "Hg (May 9, 10:00 PM)
Low46 °F (May 10, 2:00 AM)27% (May 9, 7:00 PM)29.92 "Hg (May 9, 1:00 PM)
Average68 °F83%30.08 "Hg
* Reported May 9 6:00 AM — May 24 6:00 AM, Campo Grande, Weather by CustomWeather, © 2016

Note: Actual official high and low records may vary slightly from our data, if they occured in-between our weather recording intervals... More about our weather records

Advertising

Campo Grande Weather History for the Previous 24 Hours

Scroll right to see more
 ConditionsComfort  
Time TempWeatherWind HumidityBarometerVisibility
6:00 AM
Tue, May 24
54 °FSunny.10 mph77%30.21 "Hg10 mi
5:00 AM50 °FClear.10 mph82%30.18 "Hg10 mi
4:00 AM50 °FClear.9 mph88%30.18 "Hg10 mi
3:00 AM52 °FClear.10 mph82%30.18 "Hg10 mi
2:00 AM54 °FClear.10 mph77%30.21 "Hg10 mi
1:00 AM54 °FClear.12 mph77%30.21 "Hg10 mi
12:00 AM54 °FClear.13 mph77%30.24 "Hg10 mi
11:00 PM
Mon, May 23
55 °FClear.12 mph72%30.24 "Hg10 mi
10:00 PM55 °FClear.12 mph72%30.24 "Hg10 mi
9:00 PM55 °FClear.12 mph77%30.24 "Hg10 mi
8:00 PM57 °FClear.10 mph72%30.24 "Hg10 mi
7:00 PM59 °FClear.10 mph68%30.21 "Hg10 mi
6:00 PM59 °FClear.8 mph68%30.21 "Hg10 mi
5:00 PM63 °FClear.9 mph59%30.21 "Hg10 mi
4:00 PM66 °FSunny.10 mph52%30.21 "Hg10 mi
3:00 PM66 °FSunny.15 mph56%30.21 "Hg10 mi
2:00 PM66 °FSunny.13 mph52%30.21 "Hg10 mi
1:00 PM66 °FPassing clouds.9 mph52%30.24 "HgN/A
12:00 PM64 °FPassing clouds.12 mph60%30.27 "HgN/A
11:00 AM61 °FScattered clouds.12 mph68%30.30 "HgN/A
10:00 AM61 °FPartly sunny.12 mph68%30.30 "HgN/A
9:00 AM57 °FPartly sunny.13 mph77%30.30 "HgN/A
8:00 AM54 °FPartly sunny.10 mph82%30.30 "HgN/A
7:00 AM52 °FPassing clouds.9 mph88%30.24 "HgN/A
Weather by CustomWeather, © 2016

See weather overviewHow to use our weather pages